Zurück zum Katalog

DELTA 1 DEB

AktivLEO
NORAD 49109·DEBRIS·🇺🇸 United States

Gestartet Jul 14, 1977 von Cape Canaveral Space Force Station

Loading…

Nächste Überflüge (nächste 24 Stunden)

TLE

AktuellSource: Space-Track

Epoche: Sep 14, 2026, 06:30 UTC

1 49109U 77065GR  26257.27148070  .00000682  00000-0  14275-3 0  9997
2 49109  29.0639 309.7013 0653342  11.4603 350.0091 13.68666366 25056

Verfolge DELTA 1 DEB in Echtzeit mit AllMySat

Download on the App Store